This is the latest recevied weather packets stored in our database for station/object W3JGB. If no packets are shown the sender has not sent any weather packets the latest 10 day(s).
| Time | Temp. | Humidity | Pressure | Rain* | Wind** | Luminosity | Snow |
|---|---|---|---|---|---|---|---|
| 1777415875 | 10.56° C | 89% | 1016.9 hPa | 0 mm | - | 16 W/m² | - |
| 1777415572 | 10.56° C | 89% | 1017.1 hPa | 0 mm | - | 16 W/m² | - |
| 1777415267 | 10.56° C | 89% | 1017.2 hPa | 0 mm | - | 16 W/m² | - |
| 1777414962 | 11.11° C | 89% | 1017.2 hPa | 0 mm | - | 16 W/m² | - |
| 1777414657 | 11.11° C | 88% | 1017.3 hPa | 0 mm | - | 21 W/m² | - |
| 1777414352 | 11.11° C | 89% | 1017 hPa | 0 mm | - | 13 W/m² | - |
| 1777414047 | 11.11° C | 88% | 1017 hPa | 0 mm | - | 16 W/m² | - |
| 1777413747 | 11.11° C | 88% | 1016.9 hPa | 0 mm | - | 20 W/m² | - |
| 1777413443 | 11.11° C | 89% | 1017.1 hPa | 0 mm | - | 18 W/m² | - |
| 1777413139 | 11.11° C | 88% | 1017 hPa | 0 mm | - | 19 W/m² | - |
| 1777412834 | 11.11° C | 89% | 1017.1 hPa | 0 mm | - | 21 W/m² | - |
| 1777412534 | 11.11° C | 88% | 1017 hPa | 0 mm | - | 21 W/m² | - |
| 1777412231 | 11.11° C | 88% | 1017 hPa | 0 mm | - | 19 W/m² | - |
| 1777411929 | 11.11° C | 88% | 1017.2 hPa | 0 mm | - | 19 W/m² | - |
| 1777411627 | 11.11° C | 88% | 1017.1 hPa | 0 mm | - | 26 W/m² | - |
| 1777411322 | 11.11° C | 88% | 1017.1 hPa | 0 mm | - | 23 W/m² | - |
| 1777411021 | 11.11° C | 88% | 1017.1 hPa | 0 mm | - | 29 W/m² | - |
| 1777410720 | 11.11° C | 88% | 1017 hPa | 0 mm | - | 29 W/m² | - |
| 1777410415 | 11.11° C | 88% | 1016.9 hPa | 0 mm | - | 32 W/m² | - |
| 1777410114 | 11.11° C | 87% | 1017 hPa | 0 mm | - | 37 W/m² | - |
| 1777409809 | 11.11° C | 88% | 1016.9 hPa | 0 mm | - | 41 W/m² | - |
| 1777409505 | 11.11° C | 87% | 1016.8 hPa | 0 mm | - | 40 W/m² | - |
| 1777409201 | 11.11° C | 88% | 1017.1 hPa | 0 mm | - | 37 W/m² | - |
| 1777408898 | 11.11° C | 88% | 1016.9 hPa | 0 mm | - | 56 W/m² | - |
| 1777408594 | 11.11° C | 88% | 1017 hPa | 0 mm | - | 49 W/m² | - |
* Rain latest hour (hover to see other rain measurements)
** Current wind speed in m/s (hover to see current wind gust speed)